AirNav   Air Wisconsin pilot careers
 
 1117 users online  

4C3 Yalesville Heliport
Yalesville, Connecticut, USA

GOING TO YALESVILLE?


FAA INFORMATION EFFECTIVE 11 OCTOBER 2018

Location

FAA Identifier: 4C3
Lat/Long: 41-29-30.8000N / 072-48-40.2000W
41-29.513333N / 072-48.670000W
41.4918889 / -72.8111667
(estimated)
Elevation: 65 ft. / 20 m (estimated)
Variation: 14W (2000)
From city: 2 miles N of YALESVILLE, CT
Time zone: UTC -4 (UTC -5 during Standard Time)
Zip code: 06492

Heliport Operations

Heliport use: Open to the public
Activation date: 06/2002
Control tower: no
ARTCC: BOSTON CENTER
FSS: BRIDGEPORT FLIGHT SERVICE STATION
NOTAMs facility: BDR (NOTAM-D service available)
Attendance: SATURDAY 0900-1600 LOCAL, ALL MON-FRI 08:30 TO 17:00 LOCAL
Wind indicator: lighted
Segmented circle: no
Lights: PCL 123.50
Beacon: white-green-yellow (heliport)
ACTVT ROTG BCN - 123.50.

Heliport Communications

CTAF/UNICOM: 123.05
WX ASOS at MMK (1.3 nm NW): 134.925 (203-639-9405)
WX ASOS at HVN (14 nm S): PHONE 203-466-6205
WX AWOS-3PT at OXC (15 nm W): 132.975 (203-262-1190)
WX AWOS-3 at SNC (15 nm SE): 118.325 (860-526-1551)
WX ASOS at HFD (16 nm NE): PHONE 860-527-5837

Nearby radio navigation aids

VOR radial/distance  VOR name  Freq  Var
MADr346/11.9MADISON VOR/DME110.4013W
HFDr246/14.8HARTFORD VOR/DME114.9013W
BDRr047/24.4BRIDGEPORT VOR/DME108.8012W
CCCr012/33.7CALVERTON VOR/DME117.2013W
GONr300/35.5GROTON VOR/DME110.8514W
ORWr278/36.7NORWICH VOR/DME110.0014W
CMKr082/36.9CARMEL VOR/DME116.6012W
PWLr127/39.1PAWLING VOR/DME114.3012W

 
NDB name  Hdg/Dist  Freq  Var  ID
CLERA078/15.136214WJWE .--- .-- .

Heliport Services

Fuel available: 100LL JET-A
CALL IN ADVANCE FOR FUEL 203-294-8800
Parking: hangars and tiedowns
Airframe service: MAJOR
Powerplant service: MAJOR
Bottled oxygen: NONE
Bulk oxygen: NONE

Runway Information

Helipad H1

Dimensions: 65 x 65 ft. / 20 x 20 m
Surface: concrete, in good condition
Traffic pattern: leftleft
Markings: basic, in fair condition

Heliport Ownership and Management from official FAA records

Ownership: Privately-owned
Owner: UNITED CONCRETE PRODUCTS
173 CHURCH STREET, ATTEN: JONATHAN GAVIN
YALESVILLE, CT 06492
Phone 203-269-3119
Manager: ANDREW HAYDEN
AIROCEAN AVIATION, LLC, , 120 CHURCH STREET
YALESVILLE, CT 06492
Phone 203-294-8800

Heliport Operational Statistics

Aircraft operations: avg 62/month *
67% transient general aviation
33% air taxi
* for 12-month period ending 30 September 2015

Additional Remarks

PILOTS UNFAMILIAR WITH HELIPORT CONTACT 203-294-8800 PRIOR TO ARRIVAL FOR A BRIEFING ON CURRENT PROCEDURES.
FOR CD CTC YANKEE APCH AT 860-386-3597.

Instrument Procedures

There are no published instrument procedures at 4C3.

Some nearby airports with instrument procedures:

KMMK - Meriden Markham Municipal Airport (1 nm NW)
4B8 - Robertson Field Airport (12 nm N)
KHVN - Tweed-New Haven Airport (14 nm S)
KOXC - Waterbury-Oxford Airport (15 nm W)
KSNC - Chester Airport (15 nm SE)
KHFD - Hartford-Brainard Airport (16 nm NE)
 
Loc | Ops | Rwys | IFR | FBO | Links
Com | Nav | Svcs | Stats | Notes

Silver City Flying Club
 
Area around 4C3 (Yalesville Heliport)
 
Road maps at: MapQuest Bing Google
 
Aerial photo
WARNING: Photo may not be current or correct
Aerial photo of 4C3 (Yalesville Heliport)
Photo courtesy of AirOcean Aviation, LLC
Taken in October 2008
from a Schweizer 300 helicopter

Do you have a better or more recent aerial photo of Yalesville Heliport that you would like to share? If so, please send us your photo.

 
Sectional chart

 
Airport distance calculator
Flying to Yalesville Heliport? Find the distance to fly.

From to 4C3

Sunrise and sunset
Times for 15-Oct-2018
 Local
(UTC-4)
 Zulu
(UTC)
Morning civil twilight06:3610:36
Sunrise07:0411:04
Sunset18:1022:10
Evening civil twilight18:3822:38

Current date and time
Zulu (UTC)  15-Oct-2018 22:39:02
Local (UTC-4)  15-Oct-2018 18:39:02
 
METAR
KMMK 
2nm NW 
152209Z AUTO 17006KT 10SM SCT015 SCT075 BKN110 17/16 A2985 RMK AO2 RAE09 PRESFR P0000 T01720156 $
KHVN 
14nm S 
152153Z 21009KT 10SM BKN015 BKN110 19/17 A2987 RMK AO2 RAB26E43 PRESFR SLP115 P0000 T01940172 $
KOXC 
14nm W 
152151Z 20005KT 4SM -RA BR OVC005 16/16 A2988 RMK AO2 RAB01 CIG 004V010 SLP132 P0001 T01610156 $
KSNC 
15nm SE 
151955Z AUTO 21010KT 180V240 9SM OVC006 18/18 A2995 RMK AO2
KHFD 
16nm NE 
152200Z VRB06KT 10SM OVC016 17/16 A2986 RMK AO2 RAE2154 P0000 T01720161
TAF
KBDR 
24nm SW 
152158Z 1522/1618 23012KT 6SM -SHRA OVC015 TEMPO 1522/1524 5SM -SHRA BR OVC009 FM160100 24014G22KT P6SM VCSH FEW025 SCT050 BKN100 TEMPO 1602/1604 26020G30KT 2SM TSRA BKN015CB FM160400 28018G28KT P6SM BKN050 FM160700 29013G20KT P6SM FEW035 BKN090 FM160900 30011G18KT P6SM FEW035 SCT120 SCT250 FM161200 31008KT P6SM FEW035 FM161600 27009KT P6SM FEW035
KBDL 
27nm N 
152019Z 1520/1624 19010KT P6SM OVC010 FM152300 20011KT 3SM -SHRA BR OVC015 FM160300 25011KT P6SM VCSH OVC035 FM160500 28013G26KT P6SM BKN050 FM161000 30009KT P6SM FEW250 FM162000 26007KT P6SM FEW250
NOTAMs
Click for the latest NOTAMs
NOTAMs are issued by the DoD/FAA and will open in a separate window not controlled by AirNav.

 

 
 

FBO, Fuel Providers, and Aircraft Ground Support

  
 Business Name 
 
 Contact 
 
 Services / Description 
 
Fuel Prices
 
Comments
  
 AirOcean Aviation, LLC
203-294-8800
[web site]
[email]
Airport management, Aviation fuel, Aircraft parking (ramp or tiedown), Hangars, Hangar leasing / sales, GPU / Power cart, Flight training, Aircraft rental, ...

More info about AirOcean Aviation, LLC
Phillips 66
100LL Jet A
FS $5.75 $5.25 
 Updated 04-Oct-2018
 
   write
FS=Full service
Update Fuel Prices
 

Would you like to see your business listed on this page?

 If your business provides an interesting product or service to pilots, flight crews, aircraft, or users of the Yalesville Heliport, you should consider listing it here.  To start the listing process, click on the button below
 
Add a business
 

Other Pages about Yalesville Heliport

Update a link
 
Copyright © AirNav, LLC. All rights reserved. Privacy Policy  Contact